Weather History for Gulkana, AK

Change the Weather History Date:

Friday, November 23, 2012

  Actual Average Record
Temperature  
Mean Temperature -19 °F -  
Max Temperature -6 °F 12 °F 44 °F (1952)
Min Temperature -32 °F -2 °F -38 °F (1955)
Degree Days  
Heating Degree Days 84    
Moisture  
Dew Point -19 °F    
Average Humidity 76    
Maximum Humidity 82    
Minimum Humidity 60    
Precipitation  
Precipitation 0.00 in - - ()
Snow  
Snow 0.00 in - - ()
Snow Depth 5.00 in    
Sea Level Pressure  
Sea Level Pressure 29.97 in    
Wind  
Wind Speed 1 mph (NNW)    
Max Wind Speed 5 mph    
Max Gust Speed -    
Visibility 10 miles    
Events      
Averages and records for this station are not official NWS values.
T = Trace of Precipitation, MM = Missing Value Source: NWS Daily Summary

Daily Weather History Graph

Daily Weather History Graph

Search for Another Location

Airport:

Trip Planner

Search our weather history database for the weather conditions in past years. The results will help you decide how hot, cold, wet, or windy it might be!

Date:

Astronomy

Nov. 23, 2012 Rise Set
Actual Time 9:18 AM AKST 3:37 PM AKST
Civil Twilight 8:20 AM AKST 4:35 PM AKST
Nautical Twilight 7:22 AM AKST 5:33 PM AKST
Astronomical Twilight 6:28 AM AKST 6:27 PM AKST
Moon 2:04 PM AKST (11/23) 3:31 AM AKST (11/23)
Length of Visible Light 8h 15m
Length of Day
6h 19m
Waxing Gibbous, 81% of the Moon is Illuminated
Nov 23
Waxing Gibbous
Nov 28
Full
Dec 6
Last Quarter
Dec 12
New
Dec 19
First Quarter

Hourly Weather History & Observations

Time (AKST) Temp. Windchill Dew Point Humidity Pressure Visibility Wind Dir Wind Speed Gust Speed Precip Events Conditions
12:53 AM -18.9 °F - -24.0 °F 78% 29.91 in 10.0 mi Calm Calm - N/A   Clear
1:53 AM -18.9 °F - -24.0 °F 78% 29.91 in 10.0 mi Calm Calm - N/A   Clear
2:53 AM -17.0 °F - -23.1 °F 74% 29.91 in 10.0 mi Calm Calm - N/A   Partly Cloudy
3:53 AM -17.0 °F - -22.0 °F 78% 29.94 in 10.0 mi Calm Calm - N/A   Clear
4:53 AM -16.1 °F - -20.9 °F 79% 29.94 in 10.0 mi Calm Calm - N/A   Clear
5:53 AM -15.0 °F -27.4 °F -20.0 °F 78% 29.94 in 10.0 mi North 4.6 mph - N/A   Clear
5:59 AM -14.8 °F -27.2 °F -20.2 °F 77% 29.69 in 10.0 mi NNE 4.6 mph - N/A   Scattered Clouds
6:53 AM -15.0 °F -27.4 °F -20.0 °F 78% 29.95 in 10.0 mi NW 4.6 mph - N/A   Partly Cloudy
7:53 AM -15.0 °F - -20.0 °F 78% 29.97 in 10.0 mi Calm Calm - N/A   Partly Cloudy
8:53 AM -17.0 °F - -20.9 °F 82% 29.97 in 10.0 mi Calm Calm - N/A   Overcast
9:53 AM -15.0 °F - -18.9 °F 82% 29.99 in 10.0 mi Calm Calm - N/A   Mostly Cloudy
10:53 AM -14.1 °F - -20.0 °F 75% 30.00 in 10.0 mi Calm Calm - N/A   Mostly Cloudy
11:53 AM -13.0 °F - -18.0 °F 78% 30.01 in 10.0 mi Calm Calm - N/A   Scattered Clouds
12:53 PM -9.0 °F - -15.0 °F 75% 30.00 in 10.0 mi Calm Calm - N/A   Scattered Clouds
1:53 PM -7.1 °F - -14.1 °F 72% 30.00 in 10.0 mi Calm Calm - N/A   Scattered Clouds
2:53 PM -6.0 °F - -11.0 °F 79% 30.00 in 10.0 mi Calm Calm - N/A   Scattered Clouds
3:53 PM -9.0 °F -18.2 °F -14.1 °F 79% 30.01 in 10.0 mi NNW 3.5 mph - N/A   Scattered Clouds
4:53 PM -11.9 °F - -16.1 °F 82% 30.01 in 10.0 mi Calm Calm - N/A   Mostly Cloudy
5:53 PM -15.0 °F - -18.9 °F 82% 30.02 in 10.0 mi Calm Calm - N/A   Mostly Cloudy
6:53 PM -16.1 °F - -20.9 °F 79% 30.04 in 10.0 mi Calm Calm - N/A   Mostly Cloudy
7:53 PM -15.0 °F - -20.0 °F 78% 30.04 in 10.0 mi Calm Calm - N/A   Overcast
8:53 PM -13.0 °F -22.7 °F -18.0 °F 78% 30.05 in 10.0 mi NW 3.5 mph - N/A   Overcast
9:25 PM -11.2 °F - -18.4 °F 70% 29.81 in 10.0 mi Calm Calm - N/A   Overcast
9:53 PM -11.9 °F - -17.0 °F 78% 30.05 in 10.0 mi Calm Calm - N/A   Clear
10:53 PM -11.9 °F - -17.0 °F 78% 30.06 in 10.0 mi Calm Calm - N/A   Partly Cloudy
11:53 PM -9.9 °F - -15.0 °F 78% 30.07 in 10.0 mi Calm Calm - N/A   Overcast